Location: Arnolds Mill
(42.3415°N, 73.5951°W)
Time: 13:03:03
(UTC+00:00)

STARLINK-34453 - Pass Details

Date: 23 June 2025
Orbit: 302 x 303 km, 53.2° (Epoch: 26 June)

Event Time Altitude Azimuth Distance (km) Brightness Sun altitude
Exits shadow 06:04:03 18° 338° (NNW) 852 5.2 -22.4°
Drops below altitude 10° 06:05:55 10° 23° (NNE) 1,180 6.5 -22.3°
Sets 06:08:15 0° 45° (NE) 2,003 7.6 -22.2°
